DLH8LJ EDDS-EDDF

Flight info

Callsign DLH8LJ
Flight time 0h 23m
Altitude 22000
Route ETASA2H ETASA T163 SPESA SPESA5B
Aircraft A319/M-SDE3FGHIRWY/LB1

Departure

Time 2026-04-18 09:23
Airport Stuttgart Airport (EDDS)

Arrival

Time 2026-04-18 09:46
Airport Frankfurt Main Airport (EDDF)
Time Latitude Longitude Altitude Speed Heading
2026-04-18 09:02 48.68898 9.19427 1343 ft 0 kts 344°
2026-04-18 09:15 48.68895 9.19429 1315 ft 3 kts 344°
2026-04-18 09:15 48.68870 9.19438 1314 ft 4 kts 351°
2026-04-18 09:15 48.68843 9.19442 1313 ft 4 kts
2026-04-18 09:16 48.68819 9.19432 1313 ft 4 kts 49°
2026-04-18 09:16 48.68814 9.19420 1313 ft 0 kts 74°
2026-04-18 09:19 48.68816 9.19431 1313 ft 3 kts 74°
2026-04-18 09:19 48.68826 9.19485 1312 ft 8 kts 74°
2026-04-18 09:19 48.68844 9.19584 1310 ft 12 kts 74°
2026-04-18 09:19 48.68870 9.19715 1307 ft 15 kts 73°
2026-04-18 09:20 48.68888 9.19857 1303 ft 12 kts 111°
2026-04-18 09:20 48.68805 9.19927 1296 ft 13 kts 149°
2026-04-18 09:20 48.68754 9.19958 1293 ft 0 kts 162°
2026-04-18 09:21 48.68741 9.19987 1291 ft 8 kts 115°
2026-04-18 09:21 48.68715 9.20111 1287 ft 17 kts 103°
2026-04-18 09:22 48.68681 9.20338 1277 ft 26 kts 100°
2026-04-18 09:22 48.68705 9.20709 1273 ft 64 kts 74°
2026-04-18 09:22 48.68905 9.21758 1256 ft 140 kts 73°
2026-04-18 09:22 48.69202 9.23329 1687 ft 156 kts 75°
2026-04-18 09:23 48.69490 9.24897 2499 ft 152 kts 74°
2026-04-18 09:23 48.70018 9.26245 3182 ft 157 kts 37°
2026-04-18 09:23 48.71107 9.26804 3634 ft 177 kts
2026-04-18 09:23 48.72388 9.26967 4094 ft 198 kts
2026-04-18 09:24 48.73856 9.27146 4518 ft 223 kts
2026-04-18 09:24 48.75495 9.27097 5094 ft 248 kts 348°
2026-04-18 09:24 48.77256 9.26455 5767 ft 269 kts 346°
2026-04-18 09:24 48.79090 9.25843 6736 ft 276 kts 347°
2026-04-18 09:25 48.80979 9.25244 7771 ft 279 kts 347°
2026-04-18 09:25 48.82897 9.24645 8843 ft 283 kts 347°
2026-04-18 09:25 48.84852 9.24031 9925 ft 286 kts 347°
2026-04-18 09:25 48.86819 9.23404 10615 ft 302 kts 346°
2026-04-18 09:26 48.88967 9.22708 11078 ft 324 kts 346°
2026-04-18 09:26 48.91180 9.21988 11875 ft 331 kts 346°
2026-04-18 09:26 48.93450 9.21252 12797 ft 334 kts 346°
2026-04-18 09:26 48.95752 9.20506 13744 ft 338 kts 345°
2026-04-18 09:27 48.98057 9.19754 14570 ft 341 kts 345°
2026-04-18 09:27 49.00388 9.18991 15373 ft 344 kts 345°
2026-04-18 09:27 49.02722 9.18230 16140 ft 347 kts 345°
2026-04-18 09:27 49.05099 9.17452 16920 ft 351 kts 345°
2026-04-18 09:28 49.07512 9.16657 17688 ft 355 kts 345°
2026-04-18 09:28 49.09911 9.15861 18437 ft 359 kts 345°
2026-04-18 09:28 49.12389 9.15038 19114 ft 362 kts 345°
2026-04-18 09:28 49.14859 9.14221 19758 ft 367 kts 345°
2026-04-18 09:29 49.17368 9.13399 20409 ft 371 kts 346°
2026-04-18 09:29 49.19973 9.13018 20970 ft 380 kts 356°
2026-04-18 09:29 49.22605 9.13281 21142 ft 383 kts
2026-04-18 09:29 49.25271 9.13673 21182 ft 383 kts
2026-04-18 09:30 49.27918 9.14068 21181 ft 382 kts
2026-04-18 09:30 49.30536 9.14460 21156 ft 382 kts
2026-04-18 09:30 49.33194 9.14853 20445 ft 385 kts
2026-04-18 09:30 49.35856 9.15237 19785 ft 387 kts
2026-04-18 09:31 49.38521 9.15617 19321 ft 383 kts
2026-04-18 09:31 49.41190 9.15993 18823 ft 380 kts
2026-04-18 09:31 49.43790 9.16359 18251 ft 379 kts
2026-04-18 09:31 49.46393 9.16729 17701 ft 375 kts
2026-04-18 09:32 49.48983 9.17105 17192 ft 371 kts
2026-04-18 09:32 49.51548 9.17478 16672 ft 367 kts
2026-04-18 09:32 49.54056 9.17844 16202 ft 362 kts
2026-04-18 09:32 49.56556 9.18206 15719 ft 358 kts
2026-04-18 09:33 49.59025 9.18559 15246 ft 355 kts
2026-04-18 09:33 49.61483 9.18914 14780 ft 351 kts
2026-04-18 09:33 49.63867 9.19493 14311 ft 351 kts 12°
2026-04-18 09:33 49.66156 9.20905 13815 ft 353 kts 26°
2026-04-18 09:34 49.68138 9.23084 13303 ft 355 kts 40°
2026-04-18 09:34 49.69860 9.25808 12803 ft 352 kts 45°
2026-04-18 09:34 49.71642 9.28393 12304 ft 346 kts 33°
2026-04-18 09:34 49.73784 9.29869 11837 ft 338 kts 10°
2026-04-18 09:35 49.76101 9.29962 11382 ft 330 kts 348°
2026-04-18 09:35 49.78332 9.29191 10934 ft 326 kts 344°
2026-04-18 09:35 49.80465 9.28055 10492 ft 323 kts 335°
2026-04-18 09:35 49.82505 9.26666 10214 ft 323 kts 334°
2026-04-18 09:36 49.84569 9.25232 10172 ft 324 kts 334°
2026-04-18 09:36 49.86634 9.23791 10179 ft 324 kts 334°
2026-04-18 09:36 49.88670 9.22363 10181 ft 325 kts 334°
2026-04-18 09:36 49.90731 9.20916 10174 ft 324 kts 334°
2026-04-18 09:37 49.92793 9.19473 10085 ft 322 kts 334°
2026-04-18 09:37 49.94810 9.18060 9556 ft 321 kts 334°
2026-04-18 09:37 49.96844 9.16630 9059 ft 319 kts 334°
2026-04-18 09:37 49.98862 9.15207 8546 ft 316 kts 333°
2026-04-18 09:38 50.00785 9.13628 8066 ft 313 kts 329°
2026-04-18 09:38 50.02684 9.11970 7567 ft 312 kts 329°
2026-04-18 09:38 50.04584 9.10308 7083 ft 311 kts 329°
2026-04-18 09:38 50.06358 9.08430 6582 ft 307 kts 316°
2026-04-18 09:39 50.07897 9.06185 6098 ft 303 kts 314°
2026-04-18 09:39 50.09368 9.03996 5954 ft 279 kts 314°
2026-04-18 09:39 50.10651 9.01898 5815 ft 253 kts 300°
2026-04-18 09:39 50.11318 8.99519 5681 ft 232 kts 285°
2026-04-18 09:40 50.11777 8.97194 5557 ft 221 kts 284°
2026-04-18 09:40 50.12164 8.94878 5311 ft 218 kts 274°
2026-04-18 09:40 50.12010 8.92545 4908 ft 221 kts 251°
2026-04-18 09:40 50.11484 8.90305 4586 ft 217 kts 250°
2026-04-18 09:41 50.10974 8.88130 4289 ft 209 kts 250°
2026-04-18 09:41 50.10486 8.86051 4013 ft 201 kts 250°
2026-04-18 09:41 50.10006 8.84010 3790 ft 197 kts 250°
2026-04-18 09:41 50.09541 8.82035 3454 ft 195 kts 250°
2026-04-18 09:42 50.09075 8.80058 3261 ft 191 kts 251°
2026-04-18 09:42 50.08629 8.78147 3041 ft 188 kts 251°
2026-04-18 09:42 50.08189 8.76239 2809 ft 186 kts 252°
2026-04-18 09:42 50.07742 8.74346 2559 ft 185 kts 250°
2026-04-18 09:43 50.07380 8.72443 2310 ft 181 kts 262°
2026-04-18 09:43 50.07229 8.70559 2056 ft 174 kts 261°
2026-04-18 09:43 50.06903 8.68818 1852 ft 161 kts 251°
2026-04-18 09:43 50.06531 8.67232 1580 ft 154 kts 255°
2026-04-18 09:44 50.06183 8.65690 1357 ft 148 kts 250°
2026-04-18 09:44 50.05820 8.64198 1149 ft 146 kts 253°
2026-04-18 09:44 50.05476 8.62735 951 ft 141 kts 250°
2026-04-18 09:44 50.05141 8.61332 766 ft 139 kts 251°
2026-04-18 09:45 50.04802 8.59909 586 ft 140 kts 250°
2026-04-18 09:45 50.04461 8.58479 391 ft 141 kts 251°
2026-04-18 09:45 50.04151 8.57184 367 ft 109 kts 249°
2026-04-18 09:45 50.03947 8.56331 358 ft 61 kts 249°
2026-04-18 09:46 50.03886 8.55929 351 ft 28 kts 269°
2026-04-18 09:46 50.03902 8.55702 352 ft 14 kts 280°
2026-04-18 09:46 50.03912 8.55604 353 ft 5 kts 278°
2026-04-18 09:46 50.03913 8.55603 353 ft 0 kts 278°
2026-04-18 09:48 50.03916 8.55595 351 ft 2 kts 301°
2026-04-18 09:48 50.03936 8.55587 355 ft 5 kts
2026-04-18 09:48 50.03973 8.55646 349 ft 10 kts 57°
2026-04-18 09:48 50.04003 8.55757 354 ft 12 kts 69°
2026-04-18 09:49 50.04032 8.55881 353 ft 13 kts 69°
2026-04-18 09:49 50.04082 8.55968 352 ft 10 kts
2026-04-18 09:49 50.04151 8.55936 356 ft 11 kts 339°
2026-04-18 09:49 50.04225 8.55918 361 ft 10 kts 24°
2026-04-18 09:50 50.04274 8.55961 357 ft 7 kts 11°
2026-04-18 09:50 50.04323 8.55941 359 ft 8 kts 339°
2026-04-18 09:50 50.04395 8.55907 356 ft 13 kts 355°
2026-04-18 09:50 50.04487 8.55937 357 ft 13 kts 17°
2026-04-18 09:51 50.04563 8.56002 356 ft 12 kts 58°
2026-04-18 09:51 50.04583 8.56087 356 ft 13 kts 69°
2026-04-18 09:51 50.04627 8.56265 356 ft 14 kts 69°
2026-04-18 09:51 50.04662 8.56409 362 ft 14 kts 69°
2026-04-18 09:52 50.04685 8.56500 356 ft 13 kts 65°
2026-04-18 09:52 50.04747 8.56638 361 ft 9 kts 53°
2026-04-18 09:52 50.04749 8.56695 356 ft 8 kts 110°
2026-04-18 09:52 50.04737 8.56736 361 ft 0 kts 115°